Tiempo cada hora Ávila de los Caballeros

Hoy, 21 Junio, Lunes

Tiempo Temperatura Precipitaciones Viento Presión Humedad
00:00 +10°C° 0 mm 1 mps 666 mmHg 91%
01:00 +10°C° 0 mm 1 mps 665 mmHg 90%
02:00 +10°C° 0 mm 1 mps 665 mmHg 89%
03:00 +10°C° 0 mm 1 mps 665 mmHg 88%
04:00 +10°C° 0 mm 1 mps 665 mmHg 85%
05:00 +9°C° 0 mm 2 mps 665 mmHg 81%
06:00 +9°C° 0 mm 2 mps 666 mmHg 78%
07:00 +10°C° 0 mm 2 mps 666 mmHg 73%
08:00 +12°C° 0 mm 2 mps 667 mmHg 68%
09:00 +12°C° 0 mm 3 mps 667 mmHg 63%
10:00 +13°C° 0.1 mm 3 mps 667 mmHg 60%
11:00 +14°C° 0.1 mm 4 mps 667 mmHg 57%
12:00 +15°C° 0.1 mm 4 mps 668 mmHg 55%
13:00 +15°C° 0.1 mm 4 mps 668 mmHg 54%
14:00 +15°C° 0.1 mm 4 mps 668 mmHg 53%
15:00 +16°C° 0.1 mm 5 mps 668 mmHg 52%
16:00 +15°C° 0 mm 4 mps 668 mmHg 53%
17:00 +15°C° 0 mm 4 mps 668 mmHg 54%
18:00 +15°C° 0 mm 4 mps 668 mmHg 55%
19:00 +14°C° 0 mm 3 mps 668 mmHg 62%
20:00 +12°C° 0 mm 3 mps 668 mmHg 68%
21:00 +12°C° 0 mm 2 mps 669 mmHg 75%
22:00 +12°C° 0 mm 2 mps 668 mmHg 77%
23:00 +12°C° 0 mm 2 mps 668 mmHg 79%

Mañana, 22 Junio, Martes

Tiempo Temperatura Precipitaciones Viento Presión Humedad
00:00 +10°C° 0 mm 2 mps 668 mmHg 81%
01:00 +10°C° 0 mm 2 mps 668 mmHg 84%
02:00 +9°C° 0 mm 2 mps 668 mmHg 86%
03:00 +9°C° 0 mm 2 mps 668 mmHg 88%
04:00 +10°C° 0 mm 1 mps 668 mmHg 88%
05:00 +10°C° 0 mm 1 mps 668 mmHg 87%
06:00 +10°C° 0 mm 1 mps 668 mmHg 86%
07:00 +12°C° 0 mm 1 mps 669 mmHg 77%
08:00 +14°C° 0 mm 1 mps 669 mmHg 68%
09:00 +16°C° 0 mm 2 mps 670 mmHg 60%
10:00 +17°C° 0.1 mm 2 mps 670 mmHg 56%
11:00 +17°C° 0.1 mm 2 mps 670 mmHg 52%
12:00 +18°C° 0.1 mm 2 mps 670 mmHg 49%
13:00 +18°C° 0 mm 2 mps 670 mmHg 49%
14:00 +18°C° 0 mm 2 mps 670 mmHg 48%
15:00 +18°C° 0 mm 2 mps 670 mmHg 48%
16:00 +17°C° 0 mm 2 mps 670 mmHg 52%
17:00 +16°C° 0 mm 3 mps 670 mmHg 56%
18:00 +16°C° 0 mm 3 mps 670 mmHg 61%
19:00 +14°C° 0 mm 3 mps 671 mmHg 63%
20:00 +14°C° 0 mm 3 mps 671 mmHg 65%
21:00 +13°C° 0 mm 3 mps 671 mmHg 68%
22:00 +12°C° 0 mm 3 mps 671 mmHg 71%
23:00 +12°C° 0 mm 3 mps 671 mmHg 74%

Pasado mañana, 23 Junio, Miércoles

Tiempo Temperatura Precipitaciones Viento Presión Humedad
00:00 +11°C° 0 mm 3 mps 671 mmHg 77%
01:00 +11°C° 0 mm 3 mps 670 mmHg 78%
02:00 +10°C° 0 mm 2 mps 670 mmHg 80%
03:00 +10°C° 0 mm 2 mps 670 mmHg 81%
04:00 +10°C° 0 mm 2 mps 670 mmHg 80%
05:00 +9°C° 0 mm 2 mps 670 mmHg 80%
06:00 +9°C° 0 mm 2 mps 670 mmHg 80%
07:00 +12°C° 0 mm 2 mps 671 mmHg 73%
08:00 +12°C° 0 mm 3 mps 671 mmHg 65%
09:00 +13°C° 0 mm 3 mps 671 mmHg 58%
10:00 +16°C° 0 mm 3 mps 671 mmHg 52%
11:00 +17°C° 0 mm 3 mps 672 mmHg 46%
12:00 +18°C° 0 mm 3 mps 672 mmHg 39%
13:00 +19°C° 0 mm 3 mps 672 mmHg 37%
14:00 +20°C° 0 mm 3 mps 672 mmHg 34%
15:00 +20°C° 0 mm 4 mps 672 mmHg 32%
16:00 +20°C° 0 mm 4 mps 672 mmHg 34%
17:00 +19°C° 0 mm 5 mps 672 mmHg 36%
18:00 +19°C° 0 mm 5 mps 672 mmHg 38%
19:00 +17°C° 0 mm 4 mps 672 mmHg 47%
20:00 +14°C° 0 mm 3 mps 672 mmHg 56%
21:00 +12°C° 0 mm 3 mps 672 mmHg 65%
22:00 +12°C° 0 mm 2 mps 672 mmHg 70%
23:00 +10°C° 0 mm 2 mps 672 mmHg 75%

24 Junio, Jueves

Tiempo Temperatura Precipitaciones Viento Presión Humedad
00:00 +10°C° 0 mm 2 mps 672 mmHg 80%
01:00 +9°C° 0 mm 2 mps 672 mmHg 83%
02:00 +9°C° 0 mm 2 mps 671 mmHg 85%
03:00 +9°C° 0 mm 1 mps 671 mmHg 88%
04:00 +10°C° 0 mm 1 mps 671 mmHg 86%
05:00 +10°C° 0 mm 1 mps 672 mmHg 83%
06:00 +11°C° 0 mm 1 mps 672 mmHg 81%
07:00 +13°C° 0 mm 1 mps 672 mmHg 70%
08:00 +15°C° 0 mm 1 mps 673 mmHg 59%
09:00 +19°C° 0 mm 1 mps 673 mmHg 47%
10:00 +20°C° 0 mm 1 mps 673 mmHg 43%
11:00 +21°C° 0 mm 2 mps 674 mmHg 38%
12:00 +23°C° 0 mm 2 mps 674 mmHg 33%
13:00 +24°C° 0 mm 2 mps 674 mmHg 32%
14:00 +25°C° 0 mm 2 mps 673 mmHg 30%
15:00 +26°C° 0 mm 2 mps 673 mmHg 28%
16:00 +25°C° 0 mm 2 mps 673 mmHg 29%
17:00 +25°C° 0 mm 2 mps 673 mmHg 31%
18:00 +25°C° 0 mm 2 mps 673 mmHg 32%
19:00 +23°C° 0 mm 2 mps 673 mmHg 37%
20:00 +19°C° 0 mm 2 mps 673 mmHg 42%
21:00 +17°C° 0 mm 2 mps 673 mmHg 48%
22:00 +16°C° 0 mm 2 mps 672 mmHg 52%
23:00 +16°C° 0 mm 1 mps 672 mmHg 56%

25 Junio, Viernes

Tiempo Temperatura Precipitaciones Viento Presión Humedad
00:00 +15°C° 0 mm 1 mps 672 mmHg 60%
01:00 +14°C° 0 mm 1 mps 672 mmHg 61%
02:00 +14°C° 0 mm 1 mps 672 mmHg 62%
03:00 +14°C° 0 mm 1 mps 671 mmHg 63%
04:00 +14°C° 0 mm 1 mps 672 mmHg 62%
05:00 +15°C° 0 mm 1 mps 672 mmHg 60%
06:00 +15°C° 0 mm 1 mps 672 mmHg 59%
07:00 +19°C° 0 mm 1 mps 673 mmHg 54%
08:00 +20°C° 0 mm 2 mps 673 mmHg 49%
09:00 +23°C° 0 mm 2 mps 673 mmHg 44%
10:00 +25°C° 0 mm 2 mps 674 mmHg 40%
11:00 +26°C° 0 mm 2 mps 674 mmHg 35%
12:00 +28°C° 0 mm 2 mps 674 mmHg 31%
13:00 +28°C° 0 mm 2 mps 674 mmHg 29%
14:00 +29°C° 0 mm 2 mps 674 mmHg 28%
15:00 +30°C° 0 mm 2 mps 673 mmHg 26%
16:00 +29°C° 0 mm 2 mps 673 mmHg 27%
17:00 +29°C° 0 mm 2 mps 673 mmHg 28%
18:00 +29°C° 0 mm 2 mps 673 mmHg 29%
19:00 +26°C° 0 mm 2 mps 673 mmHg 33%
20:00 +24°C° 0 mm 1 mps 673 mmHg 37%
21:00 +22°C° 0 mm 1 mps 673 mmHg 41%
22:00 +21°C° 0 mm 1 mps 673 mmHg 44%
23:00 +21°C° 0 mm 1 mps 673 mmHg 46%

26 Junio, Sábado

Tiempo Temperatura Precipitaciones Viento Presión Humedad
00:00 +20°C° 0 mm 1 mps 673 mmHg 49%
01:00 +19°C° 0 mm 1 mps 672 mmHg 53%
02:00 +18°C° 0 mm 2 mps 672 mmHg 57%
03:00 +18°C° 0 mm 2 mps 672 mmHg 61%
04:00 +18°C° 0 mm 2 mps 673 mmHg 62%
05:00 +18°C° 0 mm 2 mps 673 mmHg 64%
06:00 +19°C° 0 mm 2 mps 673 mmHg 66%
07:00 +21°C° 0 mm 2 mps 673 mmHg 57%
08:00 +25°C° 0 mm 2 mps 674 mmHg 48%
09:00 +27°C° 0 mm 2 mps 674 mmHg 40%
10:00 +28°C° 0 mm 2 mps 674 mmHg 35%
11:00 +30°C° 0 mm 3 mps 674 mmHg 31%
12:00 +31°C° 0 mm 3 mps 674 mmHg 27%
13:00 +31°C° 0 mm 3 mps 674 mmHg 28%
14:00 +30°C° 0 mm 3 mps 674 mmHg 30%
15:00 +30°C° 0 mm 3 mps 674 mmHg 31%
16:00 +29°C° 0.1 mm 3 mps 674 mmHg 34%
17:00 +28°C° 0.1 mm 3 mps 673 mmHg 36%
18:00 +28°C° 0.1 mm 3 mps 673 mmHg 39%
19:00 +26°C° 0 mm 2 mps 673 mmHg 40%
20:00 +25°C° 0 mm 2 mps 673 mmHg 42%
21:00 +23°C° 0 mm 1 mps 673 mmHg 44%
22:00 +23°C° 0 mm 2 mps 673 mmHg 43%
23:00 +23°C° 0 mm 2 mps 673 mmHg 43%
Mostrar más

Necesitamos Su Consentimiento

Meteoprog y nuestros Proveedores de Servicios pueden almacenar y acceder a sus datos personales como cookies, identificadores de dispositivo u otras tecnologías similares de su dispositivo y procesar dichos datos para personalizar contenido y anuncios, además de ofrecer funciones de redes sociales y analizar el tráfico.

  • Almacenar y/o acceder a información en su dispositivo

    Se puede almacenar o acceder a cookies, identificadores de dispositivo u otra información de su dispositivo para los fines anteriormente indicados.

  • Anuncios y contenido personalizados, medición de anuncios y contenido, percepciones del público, y desarrollo de productos

    Los anuncios y el contenido pueden personalizarse en base a su perfil. Se pueden añadir más datos para personalizar mejor los anuncios y contenidos. Se puede medir el rendimiento de los anuncios y contenidos. Se puede obtener la percepción sobre el público que ha visto los anuncios y contenidos. Dichos datos pueden usarse para desarrollar o mejorar la experiencia del usuario, sistemas y software.

Al hacer clic en ‘Estoy De Acuerdo’ usted permitirá el uso de las cookies, identificadores de dispositivo, balizas web u otras tecnologías similares indicadas. Su configuración puede cambiarse desde el navegador de su dispositivo.

Para ciertos fines, los intereses legítimos pueden ser considerados por encima del consentimiento. Puede leer más sobre ello en nuestra Política de Privacidad y Cookies.